Regional Weather Roundup
Issued by NWS

Home | Current Version | Previous Version | Text Only | Print | Product List | Glossary On
Versions: 1 2 3 4 5 6 7 8 9 10 11 12 13 14 15 16 17 18 19 20 21 22 23 24 25 26 27 28
000
ASUS45 KREV 231410
RWRNV
NEVADA REGIONAL WEATHER ROUNDUP
NATIONAL WEATHER SERVICE RENO NV
700 AM PDT WED APR 23 2014

NOTE: "FAIR" INDICATES FEW OR NO CLOUDS BELOW 12,000 FEET WITH NO
SIGNIFICANT WEATHER AND/OR OBSTRUCTIONS TO VISIBILITY.

NVZ001-003-004-231500-
WESTERN NEVADA

CITY           SKY/WX    TMP DP  RH WIND       PRES   REMARKS
RENO           PTCLDY    35  22  58 CALM      30.07R
CARSON CITY    FAIR      32  19  59 CALM      30.08R
MINDEN         CLEAR     32  23  69 CALM      30.09R
SLIDE MTN        N/A     18  16  93 NW2         N/A
PYRAMID LAKE     N/A     37 N/A N/A SW8         N/A
FALLON         PTCLDY    32  19  58 S3        30.08R
LOVELOCK       CLEAR     28  15  58 CALM      30.07R
HAWTHORNE      CLEAR     39  21  48 CALM      30.08R
$$

NVZ002-CAZ072-073-231500-
NORTHERN AND CENTRAL SIERRA

CITY           SKY/WX    TMP DP  RH WIND       PRES   REMARKS
S. LAKE TAHOE  CLEAR     26  20  77 S3        30.06R
TRUCKEE        PTCLDY    23  21  93 CALM      30.07R
SQUAW VLY 8000   N/A     23  18  80 CALM        N/A
BLUE CANYON    CLEAR     36  25  64 NE3       30.06S
MAMMOTH LAKES  FAIR      28  14  54 E3        30.02R
BRIDGEPORT     FAIR      23  16  74 CALM      30.02R
$$

NVZ030-031-036-231500-
NORTHERN NEVADA

CITY           SKY/WX    TMP DP  RH WIND       PRES   REMARKS
ELKO           SUNNY     26  23  88 CALM      30.04R
WINNEMUCCA     SUNNY     31  22  69 CALM      30.06R
WENDOVER       SUNNY     41  16  36 NW9       30.02R
$$

NVZ035-037-231500-
CENTRAL NEVADA

CITY           SKY/WX    TMP DP  RH WIND       PRES   REMARKS
ELY            PTSUNNY   26  21  81 CALM      30.03R
EUREKA           N/A     27  21  78 SW5       30.04R
$$

NVZ013-014-231500-
SOUTH CENTRAL NEVADA

CITY           SKY/WX    TMP DP  RH WIND       PRES   REMARKS
TONOPAH        SUNNY     38  17  42 N9        30.04R
$$

NVZ017-020-022-231500-
SOUTHERN NEVADA

CITY           SKY/WX    TMP DP  RH WIND       PRES   REMARKS
LAS VEGAS      CLOUDY    61  11  14 NW15G25   29.87R
N. LAS VEGAS   CLOUDY    60  12  15 NW23G31   29.88R
NELLIS AFB     CLOUDY    61  15  16 VRB6      29.90R
HENDERSON      CLOUDY    58  13  17 NE12      29.92R
MERCURY        PTSUNNY   51  14  22 E8        29.95R
$$



USA.gov is the U.S. government's official web portal to all federal, state and local government web resources and services.